NKS5441 KBOS-KBWI

Flight info

Callsign NKS5441
Flight time 1h 6m
Altitude 34000
Route SSOXS7 SSOXS Q167 ZIZZI KNUKK ATR LAFLN MIIDY3
Aircraft A320/M-SDE3FGHIRWY/LB1

Departure

Time 2026-05-04 23:26
Airport Boston Logan International Airport (KBOS)

Arrival

Time 2026-05-05 00:33
Airport Baltimore/Washington International Thurgood Marshall Airport (KBWI)
Time Latitude Longitude Altitude Speed Heading
2026-05-04 22:48 42.36369 -71.01723 29 ft 0 kts 180°
2026-05-04 23:06 42.36372 -71.01723 26 ft 2 kts 180°
2026-05-04 23:07 42.36391 -71.01723 30 ft 3 kts 180°
2026-05-04 23:07 42.36410 -71.01724 28 ft 3 kts 198°
2026-05-04 23:07 42.36423 -71.01710 29 ft 3 kts 238°
2026-05-04 23:07 42.36432 -71.01690 30 ft 3 kts 240°
2026-05-04 23:08 42.36441 -71.01670 28 ft 3 kts 237°
2026-05-04 23:08 42.36453 -71.01649 30 ft 3 kts 215°
2026-05-04 23:08 42.36469 -71.01638 29 ft 3 kts 184°
2026-05-04 23:08 42.36477 -71.01637 29 ft 1 kts 176°
2026-05-04 23:09 42.36465 -71.01629 31 ft 3 kts 141°
2026-05-04 23:09 42.36454 -71.01607 29 ft 3 kts 120°
2026-05-04 23:09 42.36445 -71.01584 29 ft 2 kts 121°
2026-05-04 23:09 42.36435 -71.01562 29 ft 3 kts 121°
2026-05-04 23:10 42.36424 -71.01539 28 ft 3 kts 121°
2026-05-04 23:10 42.36413 -71.01516 28 ft 3 kts 121°
2026-05-04 23:10 42.36405 -71.01497 26 ft 1 kts 121°
2026-05-04 23:10 42.36404 -71.01495 26 ft 1 kts 121°
2026-05-04 23:16 42.36399 -71.01484 26 ft 2 kts 121°
2026-05-04 23:16 42.36388 -71.01455 26 ft 5 kts 114°
2026-05-04 23:17 42.36373 -71.01405 29 ft 7 kts 111°
2026-05-04 23:17 42.36365 -71.01336 26 ft 8 kts 68°
2026-05-04 23:17 42.36421 -71.01293 27 ft 11 kts 21°
2026-05-04 23:17 42.36498 -71.01257 25 ft 13 kts 19°
2026-05-04 23:18 42.36591 -71.01210 25 ft 15 kts 20°
2026-05-04 23:18 42.36696 -71.01160 27 ft 16 kts 18°
2026-05-04 23:18 42.36781 -71.01149 25 ft 12 kts 342°
2026-05-04 23:18 42.36838 -71.01212 25 ft 10 kts 315°
2026-05-04 23:19 42.36900 -71.01208 27 ft 11 kts 38°
2026-05-04 23:19 42.36963 -71.01136 28 ft 13 kts 40°
2026-05-04 23:19 42.37047 -71.01072 27 ft 15 kts 26°
2026-05-04 23:19 42.37150 -71.01006 25 ft 17 kts 26°
2026-05-04 23:20 42.37265 -71.00931 25 ft 19 kts 26°
2026-05-04 23:20 42.37391 -71.00866 25 ft 20 kts 22°
2026-05-04 23:20 42.37506 -71.00810 28 ft 17 kts 19°
2026-05-04 23:20 42.37600 -71.00763 28 ft 14 kts 19°
2026-05-04 23:21 42.37699 -71.00716 26 ft 10 kts 20°
2026-05-04 23:21 42.37750 -71.00691 25 ft 7 kts 20°
2026-05-04 23:21 42.37779 -71.00676 27 ft 5 kts 20°
2026-05-04 23:21 42.37784 -71.00674 27 ft 0 kts 20°
2026-05-04 23:22 42.37792 -71.00670 25 ft 3 kts 20°
2026-05-04 23:22 42.37820 -71.00651 25 ft 6 kts 37°
2026-05-04 23:22 42.37835 -71.00590 25 ft 8 kts 97°
2026-05-04 23:23 42.37832 -71.00577 25 ft 0 kts 104°
2026-05-04 23:24 42.37829 -71.00560 27 ft 4 kts 104°
2026-05-04 23:24 42.37817 -71.00512 29 ft 6 kts 115°
2026-05-04 23:24 42.37775 -71.00485 27 ft 8 kts 182°
2026-05-04 23:25 42.37742 -71.00499 25 ft 0 kts 199°
2026-05-04 23:25 42.37734 -71.00502 26 ft 13 kts 199°
2026-05-04 23:25 42.37410 -71.00656 28 ft 82 kts 200°
2026-05-04 23:26 42.36701 -71.01000 30 ft 132 kts 200°
2026-05-04 23:26 42.35827 -71.01426 516 ft 131 kts 200°
2026-05-04 23:26 42.34951 -71.01779 1047 ft 135 kts 188°
2026-05-04 23:26 42.34007 -71.01524 1553 ft 148 kts 159°
2026-05-04 23:27 42.33225 -71.00514 2064 ft 166 kts 137°
2026-05-04 23:27 42.32460 -70.99192 2317 ft 191 kts 136°
2026-05-04 23:27 42.31626 -70.97683 2651 ft 217 kts 126°
2026-05-04 23:27 42.31193 -70.95619 3097 ft 245 kts 94°
2026-05-04 23:28 42.31455 -70.93221 3460 ft 271 kts 79°
2026-05-04 23:28 42.31845 -70.90638 4022 ft 287 kts 79°
2026-05-04 23:28 42.32242 -70.87964 4865 ft 293 kts 78°
2026-05-04 23:28 42.32637 -70.85244 5737 ft 297 kts 78°
2026-05-04 23:29 42.32970 -70.82475 6584 ft 301 kts 85°
2026-05-04 23:29 42.32870 -70.79636 7398 ft 305 kts 101°
2026-05-04 23:29 42.32258 -70.76891 8217 ft 307 kts 115°
2026-05-04 23:29 42.31349 -70.74260 9045 ft 310 kts 115°
2026-05-04 23:30 42.30335 -70.71669 9828 ft 314 kts 125°
2026-05-04 23:30 42.28929 -70.69400 10489 ft 319 kts 139°
2026-05-04 23:30 42.27103 -70.67555 10682 ft 338 kts 154°
2026-05-04 23:30 42.24874 -70.66305 10853 ft 357 kts 165°
2026-05-04 23:31 42.22477 -70.65238 11298 ft 367 kts 165°
2026-05-04 23:31 42.20047 -70.64142 11975 ft 370 kts 165°
2026-05-04 23:31 42.17593 -70.63061 12729 ft 370 kts 168°
2026-05-04 23:31 42.15105 -70.62448 13472 ft 366 kts 179°
2026-05-04 23:32 42.12574 -70.62433 14060 ft 363 kts 189°
2026-05-04 23:32 42.10097 -70.63031 14640 ft 362 kts 199°
2026-05-04 23:32 42.07694 -70.64076 15193 ft 365 kts 202°
2026-05-04 23:32 42.05272 -70.65154 15735 ft 369 kts 202°
2026-05-04 23:33 42.02818 -70.66235 16275 ft 373 kts 202°
2026-05-04 23:33 42.00344 -70.67323 16825 ft 377 kts 202°
2026-05-04 23:33 41.97830 -70.68425 17393 ft 382 kts 202°
2026-05-04 23:33 41.95286 -70.69540 17916 ft 387 kts 202°
2026-05-04 23:34 41.92718 -70.70666 18450 ft 391 kts 202°
2026-05-04 23:34 41.90112 -70.71808 18972 ft 395 kts 202°
2026-05-04 23:34 41.87486 -70.72958 19488 ft 399 kts 202°
2026-05-04 23:34 41.84837 -70.74125 20023 ft 402 kts 204°
2026-05-04 23:35 41.82287 -70.75665 20526 ft 400 kts 214°
2026-05-04 23:35 41.79880 -70.77482 21004 ft 404 kts 214°
2026-05-04 23:35 41.77424 -70.79337 21442 ft 407 kts 214°
2026-05-04 23:35 41.74943 -70.81203 21916 ft 411 kts 214°
2026-05-04 23:36 41.72435 -70.83085 22366 ft 414 kts 214°
2026-05-04 23:36 41.69909 -70.84979 22797 ft 418 kts 214°
2026-05-04 23:36 41.67360 -70.86890 23231 ft 421 kts 214°
2026-05-04 23:36 41.64794 -70.88811 23631 ft 424 kts 214°
2026-05-04 23:37 41.62211 -70.90741 24004 ft 426 kts 214°
2026-05-04 23:37 41.59618 -70.92676 24357 ft 428 kts 214°
2026-05-04 23:37 41.57057 -70.94710 24698 ft 427 kts 220°
2026-05-04 23:37 41.54752 -70.97200 25038 ft 423 kts 229°
2026-05-04 23:38 41.52803 -71.00089 25365 ft 420 kts 238°
2026-05-04 23:38 41.51179 -71.03255 25694 ft 420 kts 242°
2026-05-04 23:38 41.49561 -71.06512 26039 ft 422 kts 241°
2026-05-04 23:38 41.47933 -71.09773 26384 ft 424 kts 241°
2026-05-04 23:39 41.46287 -71.13059 26727 ft 426 kts 241°
2026-05-04 23:39 41.44634 -71.16351 27035 ft 429 kts 241°
2026-05-04 23:39 41.42970 -71.19658 27352 ft 431 kts 241°
2026-05-04 23:39 41.41291 -71.22991 27674 ft 433 kts 241°
2026-05-04 23:40 41.39608 -71.26327 28024 ft 434 kts 241°
2026-05-04 23:40 41.37923 -71.29663 28489 ft 433 kts 242°
2026-05-04 23:40 41.36244 -71.32986 28963 ft 432 kts 242°
2026-05-04 23:40 41.34571 -71.36300 29433 ft 431 kts 242°
2026-05-04 23:41 41.32893 -71.39622 29903 ft 430 kts 242°
2026-05-04 23:41 41.31247 -71.42879 30317 ft 429 kts 242°
2026-05-04 23:41 41.29580 -71.46179 30704 ft 429 kts 242°
2026-05-04 23:41 41.27913 -71.49474 31088 ft 429 kts 242°
2026-05-04 23:42 41.26241 -71.52771 31462 ft 429 kts 242°
2026-05-04 23:42 41.24569 -71.56059 31837 ft 429 kts 242°
2026-05-04 23:42 41.22896 -71.59345 32211 ft 430 kts 242°
2026-05-04 23:42 41.21221 -71.62632 32586 ft 430 kts 242°
2026-05-04 23:43 41.19547 -71.65920 32967 ft 430 kts 242°
2026-05-04 23:43 41.17869 -71.69211 33344 ft 430 kts 242°
2026-05-04 23:43 41.16207 -71.72462 33724 ft 430 kts 242°
2026-05-04 23:43 41.14520 -71.75759 33912 ft 433 kts 242°
2026-05-04 23:44 41.11104 -71.82479 33961 ft 445 kts 242°
2026-05-04 23:44 41.07602 -71.89385 33964 ft 456 kts 242°
2026-05-04 23:45 41.04043 -71.96379 33964 ft 457 kts 244°
2026-05-04 23:45 41.01227 -72.03831 33961 ft 451 kts 251°
2026-05-04 23:46 40.98577 -72.11363 33971 ft 452 kts 251°
2026-05-04 23:46 40.95914 -72.18892 33969 ft 452 kts 250°
2026-05-04 23:47 40.93237 -72.26424 33958 ft 452 kts 250°
2026-05-04 23:47 40.89783 -72.33466 33961 ft 465 kts 233°
2026-05-04 23:48 40.85203 -72.39501 33967 ft 468 kts 230°
2026-05-04 23:48 40.80556 -72.45537 33955 ft 469 kts 229°
2026-05-04 23:49 40.75534 -72.51116 33983 ft 473 kts 225°
2026-05-04 23:49 40.70457 -72.56614 33982 ft 473 kts 225°
2026-05-04 23:50 40.65419 -72.62168 33966 ft 471 kts 226°
2026-05-04 23:50 40.60503 -72.67877 33973 ft 471 kts 227°
2026-05-04 23:51 40.55607 -72.73605 33983 ft 471 kts 226°
2026-05-04 23:51 40.50664 -72.79294 33989 ft 472 kts 226°
2026-05-04 23:52 40.45737 -72.84889 33977 ft 471 kts 226°
2026-05-04 23:52 40.40775 -72.90534 33988 ft 471 kts 226°
2026-05-04 23:53 40.35812 -72.96184 33977 ft 472 kts 226°
2026-05-04 23:53 40.30891 -73.01778 33992 ft 471 kts 225°
2026-05-04 23:54 40.25917 -73.07405 33986 ft 471 kts 225°
2026-05-04 23:54 40.20963 -73.13010 33995 ft 471 kts 225°
2026-05-04 23:55 40.16011 -73.18615 34001 ft 470 kts 225°
2026-05-04 23:56 40.08575 -73.26999 33989 ft 470 kts 225°
2026-05-04 23:56 40.03614 -73.32569 34008 ft 469 kts 225°
2026-05-04 23:57 39.98690 -73.38067 34005 ft 469 kts 225°
2026-05-04 23:57 39.94537 -73.42700 34008 ft 469 kts 225°
2026-05-04 23:58 39.88788 -73.49106 34019 ft 468 kts 224°
2026-05-04 23:58 39.84640 -73.53721 34014 ft 467 kts 224°
2026-05-04 23:59 39.79730 -73.59182 34016 ft 466 kts 224°
2026-05-04 23:59 39.74806 -73.64672 34015 ft 466 kts 224°
2026-05-05 00:00 39.69894 -73.70138 34006 ft 466 kts 224°
2026-05-05 00:00 39.64953 -73.75603 34017 ft 465 kts 224°
2026-05-05 00:01 39.60020 -73.81042 34013 ft 465 kts 224°
2026-05-05 00:01 39.55081 -73.86485 34016 ft 465 kts 224°
2026-05-05 00:02 39.50182 -73.91885 34018 ft 465 kts 224°
2026-05-05 00:02 39.45254 -73.97311 34009 ft 465 kts 224°
2026-05-05 00:03 39.40318 -74.02716 34012 ft 465 kts 224°
2026-05-05 00:03 39.35409 -74.08087 33993 ft 464 kts 223°
2026-05-05 00:04 39.30488 -74.13463 34006 ft 463 kts 223°
2026-05-05 00:04 39.25566 -74.18831 34009 ft 463 kts 223°
2026-05-05 00:05 39.20642 -74.24182 34010 ft 463 kts 223°
2026-05-05 00:05 39.15717 -74.29533 34003 ft 462 kts 223°
2026-05-05 00:06 39.10806 -74.34855 34020 ft 460 kts 223°
2026-05-05 00:06 39.05911 -74.40146 34014 ft 459 kts 223°
2026-05-05 00:07 39.01011 -74.45420 34013 ft 459 kts 223°
2026-05-05 00:07 38.96375 -74.50931 34002 ft 454 kts 233°
2026-05-05 00:08 38.93242 -74.57836 34009 ft 446 kts 252°
2026-05-05 00:08 38.91635 -74.65494 34004 ft 444 kts 258°
2026-05-05 00:08 38.90884 -74.69336 33886 ft 440 kts 257°
2026-05-05 00:09 38.90141 -74.73109 32576 ft 435 kts 257°
2026-05-05 00:09 38.89393 -74.76901 30839 ft 441 kts 258°
2026-05-05 00:09 38.88652 -74.80742 29791 ft 443 kts 258°
2026-05-05 00:09 38.87926 -74.84579 28742 ft 444 kts 258°
2026-05-05 00:10 38.87205 -74.88439 27646 ft 445 kts 258°
2026-05-05 00:10 38.86485 -74.92277 26998 ft 438 kts 258°
2026-05-05 00:10 38.85775 -74.96059 26272 ft 433 kts 258°
2026-05-05 00:10 38.85070 -74.99799 25557 ft 428 kts 258°
2026-05-05 00:11 38.84376 -75.03452 24859 ft 424 kts 258°
2026-05-05 00:11 38.83678 -75.07103 24142 ft 421 kts 258°
2026-05-05 00:11 38.82976 -75.10751 23450 ft 417 kts 258°
2026-05-05 00:11 38.82281 -75.14347 22703 ft 413 kts 258°
2026-05-05 00:12 38.81593 -75.17911 22025 ft 408 kts 258°
2026-05-05 00:12 38.80989 -75.21450 21353 ft 402 kts 263°
2026-05-05 00:12 38.80739 -75.24996 20709 ft 397 kts 267°
2026-05-05 00:12 38.80532 -75.28463 20083 ft 393 kts 266°
2026-05-05 00:13 38.80317 -75.31945 19486 ft 390 kts 266°
2026-05-05 00:13 38.80099 -75.35399 18894 ft 388 kts 266°
2026-05-05 00:13 38.79881 -75.38833 18333 ft 385 kts 266°
2026-05-05 00:13 38.79665 -75.42248 17756 ft 382 kts 266°
2026-05-05 00:14 38.79452 -75.45608 17277 ft 376 kts 266°
2026-05-05 00:14 38.79240 -75.48932 16728 ft 372 kts 266°
2026-05-05 00:14 38.79031 -75.52225 16176 ft 369 kts 266°
2026-05-05 00:14 38.78826 -75.55485 15613 ft 365 kts 266°
2026-05-05 00:15 38.78624 -75.58712 15051 ft 362 kts 266°
2026-05-05 00:15 38.78417 -75.61916 14484 ft 358 kts 265°
2026-05-05 00:15 38.78210 -75.65078 13913 ft 355 kts 265°
2026-05-05 00:15 38.78002 -75.68217 13286 ft 352 kts 265°
2026-05-05 00:16 38.77797 -75.71323 12697 ft 348 kts 266°
2026-05-05 00:16 38.77596 -75.74394 12113 ft 343 kts 266°
2026-05-05 00:16 38.77403 -75.77366 11844 ft 332 kts 266°
2026-05-05 00:16 38.77217 -75.80238 11718 ft 317 kts 266°
2026-05-05 00:17 38.77034 -75.82992 11581 ft 301 kts 266°
2026-05-05 00:17 38.76859 -75.85569 11328 ft 282 kts 266°
2026-05-05 00:17 38.76692 -75.88034 10990 ft 274 kts 266°
2026-05-05 00:17 38.76531 -75.90443 10973 ft 269 kts 266°
2026-05-05 00:18 38.76370 -75.92856 11045 ft 273 kts 266°
2026-05-05 00:18 38.76207 -75.95295 11043 ft 274 kts 266°
2026-05-05 00:18 38.76046 -75.97698 10945 ft 274 kts 266°
2026-05-05 00:18 38.75882 -76.00119 10785 ft 272 kts 266°
2026-05-05 00:19 38.75718 -76.02529 10627 ft 271 kts 266°
2026-05-05 00:19 38.75622 -76.04935 10477 ft 269 kts 275°
2026-05-05 00:19 38.75985 -76.07267 10326 ft 268 kts 289°
2026-05-05 00:19 38.76828 -76.09387 10176 ft 268 kts 302°
2026-05-05 00:20 38.77841 -76.11390 10024 ft 267 kts 301°
2026-05-05 00:20 38.78843 -76.13392 9727 ft 266 kts 301°
2026-05-05 00:20 38.79834 -76.15380 9443 ft 264 kts 300°
2026-05-05 00:20 38.80818 -76.17359 9170 ft 263 kts 300°
2026-05-05 00:21 38.81800 -76.19338 8903 ft 263 kts 299°
2026-05-05 00:21 38.82784 -76.21321 8634 ft 263 kts 299°
2026-05-05 00:21 38.83765 -76.23299 8367 ft 263 kts 299°
2026-05-05 00:21 38.84750 -76.25283 8097 ft 263 kts 299°
2026-05-05 00:22 38.85734 -76.27263 7826 ft 264 kts 298°
2026-05-05 00:22 38.86701 -76.29223 7562 ft 263 kts 296°
2026-05-05 00:22 38.87428 -76.31351 7299 ft 260 kts 287°
2026-05-05 00:22 38.88058 -76.33529 7033 ft 260 kts 287°
2026-05-05 00:23 38.88696 -76.35702 6769 ft 260 kts 286°
2026-05-05 00:23 38.89334 -76.37875 6502 ft 260 kts 286°
2026-05-05 00:23 38.89975 -76.40046 6231 ft 260 kts 286°
2026-05-05 00:23 38.90615 -76.42219 5954 ft 259 kts 286°
2026-05-05 00:24 38.91249 -76.44384 5684 ft 259 kts 286°
2026-05-05 00:24 38.91881 -76.46544 5427 ft 258 kts 286°
2026-05-05 00:24 38.92513 -76.48699 5167 ft 257 kts 286°
2026-05-05 00:24 38.93271 -76.50790 5042 ft 261 kts 295°
2026-05-05 00:25 38.94170 -76.52818 5029 ft 263 kts 294°
2026-05-05 00:25 38.95076 -76.54864 5038 ft 263 kts 294°
2026-05-05 00:25 38.95955 -76.56849 5042 ft 252 kts 294°
2026-05-05 00:25 38.96804 -76.58758 5044 ft 243 kts 294°
2026-05-05 00:26 38.97640 -76.60640 4931 ft 242 kts 294°
2026-05-05 00:26 38.98475 -76.62508 4774 ft 241 kts 294°
2026-05-05 00:26 38.99310 -76.64371 4611 ft 240 kts 294°
2026-05-05 00:26 39.00143 -76.66231 4472 ft 240 kts 294°
2026-05-05 00:27 39.00975 -76.68093 4318 ft 240 kts 294°
2026-05-05 00:27 39.01801 -76.69938 4202 ft 234 kts 294°
2026-05-05 00:27 39.02598 -76.71716 4095 ft 224 kts 294°
2026-05-05 00:27 39.03360 -76.73410 4042 ft 215 kts 294°
2026-05-05 00:28 39.04110 -76.75076 4032 ft 215 kts 294°
2026-05-05 00:28 39.04853 -76.76724 4037 ft 217 kts 294°
2026-05-05 00:28 39.05614 -76.78416 4048 ft 220 kts 294°
2026-05-05 00:28 39.06383 -76.80120 4032 ft 219 kts 294°
2026-05-05 00:29 39.07151 -76.81816 3922 ft 219 kts 294°
2026-05-05 00:29 39.08036 -76.83429 3760 ft 225 kts 314°
2026-05-05 00:29 39.09452 -76.84280 3572 ft 230 kts 348°
2026-05-05 00:29 39.11064 -76.84366 3387 ft 233 kts 358°
2026-05-05 00:30 39.12679 -76.84298 3189 ft 232 kts 359°
2026-05-05 00:30 39.14275 -76.83916 3060 ft 239 kts 23°
2026-05-05 00:30 39.15586 -76.82633 2802 ft 236 kts 57°
2026-05-05 00:30 39.16438 -76.80850 2568 ft 232 kts 63°
2026-05-05 00:31 39.17257 -76.79057 2190 ft 235 kts 63°
2026-05-05 00:31 39.17838 -76.77168 1693 ft 217 kts 88°
2026-05-05 00:31 39.17844 -76.75353 1252 ft 200 kts 99°
2026-05-05 00:31 39.17744 -76.73625 925 ft 183 kts 98°
2026-05-05 00:32 39.17656 -76.72098 719 ft 158 kts 99°
2026-05-05 00:32 39.17587 -76.70768 490 ft 144 kts 99°
2026-05-05 00:32 39.17514 -76.69514 298 ft 140 kts 96°
2026-05-05 00:32 39.17446 -76.68286 160 ft 130 kts 97°
2026-05-05 00:33 39.17381 -76.67360 158 ft 64 kts 94°
2026-05-05 00:33 39.17364 -76.67027 160 ft 31 kts 95°
2026-05-05 00:33 39.17352 -76.66771 158 ft 26 kts 91°
2026-05-05 00:33 39.17360 -76.66615 154 ft 15 kts 56°
2026-05-05 00:34 39.17442 -76.66553 154 ft 15 kts 69°
2026-05-05 00:34 39.17515 -76.66445 151 ft 18 kts 34°
2026-05-05 00:34 39.17624 -76.66352 154 ft 19 kts 31°
2026-05-05 00:34 39.17736 -76.66259 155 ft 9 kts 34°
2026-05-05 00:35 39.17793 -76.66210 156 ft 11 kts 34°
2026-05-05 00:35 39.17862 -76.66151 155 ft 13 kts 33°
2026-05-05 00:35 39.17950 -76.66076 153 ft 14 kts 34°
2026-05-05 00:35 39.18024 -76.66037 154 ft 12 kts 348°
2026-05-05 00:36 39.18039 -76.66127 154 ft 14 kts 223°
2026-05-05 00:36 39.17955 -76.66201 155 ft 16 kts 214°
2026-05-05 00:36 39.17873 -76.66268 155 ft 14 kts 210°
2026-05-05 00:36 39.17790 -76.66337 155 ft 15 kts 215°
2026-05-05 00:37 39.17727 -76.66416 156 ft 12 kts 266°
2026-05-05 00:37 39.17769 -76.66518 156 ft 14 kts 310°
2026-05-05 00:37 39.17844 -76.66595 156 ft 14 kts 323°
2026-05-05 00:37 39.17904 -76.66575 156 ft 6 kts 51°
2026-05-05 00:38 39.17915 -76.66554 156 ft 0 kts 55°